Location: Newark
(14.1000°N, 87.2167°W)
Time: 01:20:25
(UTC+00:00)

Hubble Space Telescope - Pass Details

Date: 26 July 2019
Orbit: 536 x 540 km, 28.5° (Epoch: 20 August)

Event Time Altitude Azimuth Distance (km) Brightness Sun altitude
Exits shadow 10:26:44 15° 296° (WNW) 1,499 2.7 -15.3°
Maximum altitude 10:29:09 24° 341° (NNW) 1,130 2.5 -14.8°
Drops below altitude 10° 10:32:31 10° 36° (NE) 1,778 4.4 -14.0°
Sets 10:35:06 0° 51° (NE) 2,667 6.0 -13.5°
